{"data":{"norad_id":52895,"intl_designator":"2022-065B","name":"KSLV-II DUMMY","alt_names":[],"object_type":"PAYLOAD","status":"ACTIVE","operator":null,"country":"SKOR","launch_date":"2022-06-21","launch_site_code":"NSC","launch_vehicle":null,"mission":null,"orbit_class":"UNKNOWN","rcs_meters":null,"size_class":null,"mass_kg":null,"dimensions":null,"purposes":[],"wikipedia_slug":null,"has_3d_model":false,"image_url":null,"decayed_at":null,"tle_current":{"epoch":"2026-05-25T03:02:42.673920Z","epoch_age_seconds":59975,"freshness":"FRESH","line1":"1 52895U 22065B   26145.12688280  .00000022  00000+0  14642-4 0  9991","line2":"2 52895  98.2312 285.1997 0009525 106.0625 254.1624 14.58687507208991","mean_motion":14.58687507,"eccentricity":0.0009525,"inclination_deg":98.2312,"raan_deg":285.1997,"arg_perigee_deg":106.0625,"mean_anomaly_deg":254.1624,"bstar":1.4642e-5,"rev_number":20899,"period_min":98.718882083358,"perigee_km":690.67562322509,"apogee_km":704.15454995004,"semimajor_km":7075.5520865876,"source":"CELESTRAK","updated_at":"2026-05-25T13:37:57.952955Z"}}}